Change the Weather History Date:

Saturday, November 9, 2013

  Actual Average Record
Temperature  
Mean Temperature 47 °F -  
Max Temperature 61 °F 65 °F 80 °F (2000)
Min Temperature 33 °F 43 °F 33 °F (2012)
Degree Days  
Heating Degree Days 18    
Moisture  
Dew Point 40 °F    
Average Humidity 73    
Maximum Humidity 93    
Minimum Humidity 44    
Precipitation  
Precipitation 0.00 in - - ()
Sea Level Pressure  
Sea Level Pressure 30.31 in    
Wind  
Wind Speed 2 mph (SSE)    
Max Wind Speed 8 mph    
Max Gust Speed -    
Visibility 10 miles    
Events      
Averages and records for this station are not official NWS values.
T = Trace of Precipitation, MM = Missing Value Source: NWS Daily Summary

Daily Weather History Graph

Daily Weather History Graph

Search for Another Location

Airport or City:

Trip Planner

Search our weather history database for the weather conditions in past years. The results will help you decide how hot, cold, wet, or windy it might be!

Date:

Astronomy

Nov. 09, 2013 Rise Set
Actual Time 6:38 AM EST 5:08 PM EST
Civil Twilight 6:11 AM EST 5:35 PM EST
Nautical Twilight 5:41 AM EST 6:05 PM EST
Astronomical Twilight 5:11 AM EST 6:35 PM EST
Moon 12:15 PM EST (11/9) 11:33 PM EST (11/9)
Length of Visible Light 11h 23m
Length of Day
10h 30m
Waxing Crescent, 44% of the Moon is Illuminated
Nov 9
Waxing Crescent
Nov 10
First Quarter
Nov 17
Full
Nov 25
Last Quarter
Dec 2
New

Hourly Weather History & Observations

Time (EST) Temp. Windchill Dew Point Humidity Pressure Visibility Wind Dir Wind Speed Gust Speed Precip Events Conditions
12:56 AM 36.0 °F - 34.0 °F 93% 30.33 in 10.0 mi Calm Calm - N/A   Clear
1:56 AM 37.9 °F - 34.0 °F 86% 30.33 in 10.0 mi Calm Calm - N/A   Clear
2:56 AM 35.1 °F - 33.1 °F 92% 30.34 in 10.0 mi Calm Calm - N/A   Clear
3:56 AM 36.0 °F - 33.1 °F 89% 30.34 in 10.0 mi Calm Calm - N/A   Clear
4:56 AM 34.0 °F - 32.0 °F 92% 30.34 in 9.0 mi Calm Calm - N/A   Clear
5:56 AM 33.1 °F 30.0 °F 30.9 °F 92% 30.35 in 9.0 mi NW 3.5 mph - N/A   Clear
6:56 AM 34.0 °F 31.0 °F 32.0 °F 92% 30.37 in 10.0 mi NW 3.5 mph - N/A   Clear
7:56 AM 41.0 °F - 36.0 °F 82% 30.38 in 10.0 mi Calm Calm - N/A   Clear
8:56 AM 48.9 °F - 39.9 °F 71% 30.38 in 10.0 mi NNE 4.6 mph - N/A   Clear
9:56 AM 54.0 °F - 37.9 °F 55% 30.38 in 10.0 mi East 3.5 mph - N/A   Clear
10:56 AM 55.9 °F - 34.0 °F 44% 30.37 in 10.0 mi East 4.6 mph - N/A   Clear
11:56 AM 57.9 °F - 37.0 °F 46% 30.34 in 10.0 mi East 4.6 mph - N/A   Clear
12:56 PM 59.0 °F - 37.9 °F 46% 30.30 in 10.0 mi East 3.5 mph - N/A   Clear
1:56 PM 60.1 °F - 39.9 °F 47% 30.28 in 10.0 mi East 6.9 mph - N/A   Mostly Cloudy
2:56 PM 61.0 °F - 42.1 °F 50% 30.27 in 6.0 mi East 4.6 mph - N/A   Haze
3:56 PM 59.0 °F - 44.1 °F 58% 30.27 in 10.0 mi South 8.1 mph - N/A   Partly Cloudy
4:56 PM 57.0 °F - 46.0 °F 67% 30.27 in 10.0 mi South 4.6 mph - N/A   Mostly Cloudy
5:56 PM 55.0 °F - 46.0 °F 72% 30.28 in 10.0 mi SSW 3.5 mph - N/A   Clear
6:56 PM 53.1 °F - 46.9 °F 80% 30.28 in 10.0 mi SSW 3.5 mph - N/A   Clear
7:56 PM 53.1 °F - 46.9 °F 80% 30.28 in 10.0 mi SSW 3.5 mph - N/A   Clear
8:56 PM 53.1 °F - 46.9 °F 80% 30.27 in 10.0 mi West 3.5 mph - N/A   Clear
9:56 PM 52.0 °F - 46.9 °F 83% 30.23 in 10.0 mi SW 3.5 mph - N/A   Clear
10:56 PM 52.0 °F - 48.0 °F 86% 30.23 in 10.0 mi WSW 4.6 mph - N/A   Clear
11:56 PM 53.1 °F - 46.9 °F 80% 30.23 in 10.0 mi WSW 6.9 mph - N/A   Clear